Temperature
15 15 15 15 15 15 15 15 15 15 15 15 15 15 15 15 15 15 15 15 15 15 15 15 15 15 15 15 15 15 15 15 15 15 15 15 15 15 15 15 15 15 15
15 15 15 15 15 15 15 15 15 15 15 15 15 15 15 15 15 14 14 14 15 15 15 15 15 15 15 15 15 14 14 14 14 14 14 14 14 14 14 14 14 14 14
15 15 15 15 15 15 15 15 15 15 15 15 15 14 14 14 14 14 14 14 14 14 14 14 14 14 14 14 14 14 14 14 14 14 14 14 14 14 14 14 14 14 14
15 15 15 15 15 15 15 15 15 15 15 14 14 14 14 14 14 14 14 14 14 14 14 14 14 14 14 14 14 14 14 14 14 14 14 14 14 14 14 14 13 13 13
15 15 15 15 15 15 15 15 14 14 14 14 14 14 14 14 14 14 14 14 14 14 14 14 14 14 14 14 14 13 13 13 13 13 13 13 13 13 13 13 13 13 13
15 15 15 14 15 15 14 14 14 14 14 14 14 14 14 14 14 14 14 14 14 13 13 13 13 14 14 14 13 13 13 13 13 13 13 13 13 13 13 13 13 13 13
15 15 15 15 15 14 14 14 14 14 14 14 14 14 14 14 14 14 14 13 13 13 13 13 13 13 13 13 13 13 13 13 13 13 13 13 13 13 13 13 13 13 13
15 15 14 14 14 14 14 14 14 14 14 14 14 14 14 14 13 13 13 13 13 13 13 13 13 13 13 12 13 13 13 13 12 13 13 13 13 13 12 12 12 12 12
14 14 14 14 14 14 14 14 14 14 14 14 14 14 15 15 14 13 13 13 13 13 13 13 13 13 12 12 12 13 13 13 12 12 12 12 12 12 12 12 12 12 12
14 14 14 14 14 14 14 14 14 14 14 14 14 14 14 14 14 14 13 13 13 13 13 12 12 12 12 12 12 13 13 12 12 12 12 12 12 12 12 12 12 12 12
14 14 14 14 14 14 14 14 14 14 14 14 14 14 14 14 14 14 13 13 13 13 13 12 12 12 12 12 12 12 12 12 12 12 12 12 12 12 12 12 12 12 12
14 14 14 14 14 14 14 14 14 14 14 14 14 14 13 14 14 14 14 13 13 13 12 12 12 12 12 12 12 12 12 12 12 12 12 12 12 12 11 11 11 11 11
14 14 14 14 14 14 14 14 14 14 14 14 14 14 13 13 13 13 13 13 13 13 12 12 12 12 12 12 12 12 12 12 12 12 12 12 12 12 11 11 11 11 11
14 14 14 14 14 14 14 14 14 14 14 14 14 14 13 13 13 13 13 13 13 13 12 12 12 12 12 12 12 12 12 12 12 12 11 11 11 11 11 11 11 11 11
14 14 14 14 14 14 14 14 14 14 14 14 13 13 13 13 13 13 13 13 13 13 13 12 12 12 12 12 12 11 11 11 12 11 11 11 11 11 11 11 11 11 11
14 14 14 14 14 14 14 14 14 14 13 13 14 13 13 13 13 13 13 13 13 13 13 12 12 12 12 11 12 11 11 11 11 11 11 11 11 11 11 11 11 11 10
14 14 14 14 14 14 14 14 14 14 14 13 13 13 13 13 13 13 13 13 13 13 13 12 12 12 11 11 11 11 11 11 11 11 11 11 11 11 10 10 10 10 10
14 14 14 14 14 14 14 14 14 14 13 13 13 13 13 13 13 13 13 13 13 13 12 12 12 11 11 11 11 11 11 11 10 11 11 11 11 10 10 10 10 10 10
14 14 14 14 14 14 14 14 13 13 13 13 13 13 13 13 13 13 13 13 13 12 12 12 12 11 11 11 11 11 10 10 10 10 11 11 10 10 10 10 10 10 10
14 14 14 14 14 14 13 13 13 13 13 13 13 13 13 13 13 13 13 13 12 12 12 12 12 11 11 11 10 10 10 10 10 10 10 10 10 10 10 10 10 10 9
14 14 14 14 14 14 13 13 13 13 13 13 13 13 13 13 13 13 13 12 12 12 12 12 11 11 11 10 10 10 10 10 10 10 10 10 9 9 9 9 9 9 9
13 13 13 13 13 13 13 13 13 13 13 13 13 13 13 13 13 13 13 13 12 12 12 11 11 11 11 10 10 10 10 10 9 9 9 9 9 9 9 9 9 9 9
13 13 13 13 13 13 13 13 13 13 13 13 13 12 12 13 13 12 12 12 12 12 12 11 11 11 11 10 10 10 10 10 9 9 9 9 9 8 8 8 9 9 9
13 13 13 13 13 13 13 13 13 13 13 13 13 12 12 12 12 12 12 12 12 12 12 11 11 11 11 10 10 10 10 9 9 9 9 8 8 8 8 8 8 8 8
13 13 13 13 13 13 13 13 13 12 12 12 12 12 12 12 12 12 12 12 11 11 11 11 11 11 11 10 10 10 9 9 9 9 9 8 8 8 8 8 8 8 8
12 12 12 12 12 12 13 12 12 12 12 12 12 12 12 12 12 12 11 11 11 11 11 11 10 10 10 10 10 9 9 9 8 8 8 8 8 7 7 7 7 7 7
Wind_Speed
4 5 5 5 6 6 6 5 6 7 7 7 8 8 9 9 9 9 10 13 12 11 11 11 10 10 10 9 9 9 9 9 9 10 10 10 10 10 11 11 11 11 11
4 4 5 5 5 5 5 6 6 6 6 6 7 8 8 8 9 8 9 10 12 12 11 11 10 10 10 10 10 9 9 9 10 10 10 10 10 11 11 11 11 11 10
4 4 4 4 5 5 6 6 6 6 6 6 7 7 7 8 8 8 8 7 9 11 12 11 10 10 10 10 10 10 9 9 10 10 10 10 11 11 10 11 11 11 10
4 4 3 4 5 4 4 4 4 4 5 5 5 5 6 6 7 7 7 7 7 7 10 11 11 11 10 10 10 11 10 9 10 10 9 10 10 10 9 10 10 10 10
3 4 3 4 4 4 4 4 4 4 5 5 5 5 5 5 5 6 7 8 8 7 7 9 11 11 11 11 10 10 10 10 9 9 9 9 9 8 9 9 9 9 9
3 4 3 4 4 3 3 4 4 4 4 4 5 5 4 4 4 5 6 6 6 7 7 6 7 9 10 10 9 9 9 9 9 9 9 9 9 8 8 9 9 8 9
3 3 3 3 3 3 3 4 4 5 4 3 3 4 4 4 4 4 4 4 5 6 6 5 5 5 7 9 9 8 9 9 9 8 8 8 8 8 8 8 8 8 9
3 3 3 3 3 3 3 4 3 2 2 1 1 1 2 2 3 3 3 3 3 4 4 5 5 5 5 6 9 8 8 8 8 8 8 8 8 7 7 7 8 8 8
2 2 3 3 3 3 3 3 3 2 1 1 1 1 0 1 1 2 3 2 2 2 2 3 4 4 5 5 6 8 7 7 7 7 7 6 6 7 7 7 7 7 7
2 2 2 2 2 2 2 2 2 1 1 1 1 1 2 1 1 1 2 2 2 2 1 2 3 3 4 4 6 8 7 7 7 7 6 5 6 6 6 6 6 6 6
2 2 2 2 2 2 2 2 2 1 1 1 1 1 1 1 1 1 1 1 1 1 1 1 1 2 3 4 4 6 7 7 7 7 6 6 6 6 6 6 6 6 6
2 3 2 2 2 2 2 2 2 2 1 1 1 1 1 1 1 1 1 1 1 1 1 1 1 2 2 3 5 6 7 7 7 7 7 6 6 6 6 5 5 5 6
2 2 2 2 2 2 2 2 2 2 2 2 1 1 1 1 1 1 1 1 1 1 1 1 1 1 2 3 4 5 6 6 6 6 7 7 5 5 5 5 5 5 5
2 2 2 2 2 2 2 2 1 1 1 1 1 1 1 1 1 1 2 2 1 1 1 1 1 1 2 2 4 3 5 5 5 5 6 7 6 5 4 5 5 4 5
2 2 3 3 3 3 2 2 2 2 1 1 1 1 1 1 1 1 2 2 2 2 1 1 1 2 2 2 2 3 3 6 5 5 5 6 6 6 6 5 5 5 5
2 3 3 3 3 3 3 2 2 2 2 1 1 2 1 1 1 2 1 2 2 2 1 1 1 1 2 2 3 2 3 6 5 5 5 5 6 5 6 6 6 6 6
3 3 3 3 3 3 3 3 2 2 2 2 2 2 2 2 2 2 2 2 1 2 2 1 2 2 2 2 3 2 2 2 4 5 4 4 5 5 5 5 5 5 5
3 3 3 4 3 3 3 3 3 3 3 2 2 2 3 2 3 2 2 2 2 2 2 2 2 2 2 2 2 2 1 2 2 6 5 4 4 4 4 4 4 4 4
3 3 3 4 4 3 3 3 3 3 3 3 2 3 3 3 3 3 3 2 2 2 2 3 2 2 2 2 2 1 1 1 1 4 5 4 3 3 2 3 2 2 2
3 3 3 3 3 3 3 3 3 3 3 2 2 2 2 3 3 3 3 3 3 3 3 3 3 2 2 2 2 2 2 2 1 2 2 3 4 4 3 2 2 1 1
2 2 2 3 3 2 2 2 3 3 3 2 2 2 1 1 1 1 2 3 4 3 3 3 3 2 2 2 3 3 2 2 1 1 2 2 2 2 3 3 3 1 1
3 3 3 3 3 2 2 1 2 3 3 3 3 3 2 3 3 3 2 1 1 4 4 4 3 3 4 3 3 3 3 3 2 2 2 2 2 1 1 0 2 3 2
3 3 3 2 3 3 4 4 3 3 3 3 3 3 2 2 3 3 5 5 3 2 3 4 4 4 3 3 3 4 4 3 2 1 2 2 2 2 1 1 4 3 2
3 3 3 3 2 2 4 4 4 5 4 4 4 4 4 4 3 3 4 3 3 3 4 4 4 3 3 2 3 3 2 2 2 1 2 2 2 2 2 2 5 4 3
3 3 3 4 4 3 4 4 4 4 4 4 4 4 4 4 4 3 4 3 3 3 3 3 1 1 2 1 2 2 3 3 3 3 2 2 3 3 3 3 4 6 5
4 3 3 4 4 4 4 5 5 4 5 4 4 5 4 4 5 5 5 4 4 3 3 4 4 4 4 4 5 5 4 4 4 3 3 3 3 3 3 3 3 3 4
Wind_Direction
82 85 84 80 82 87 92 85 85 82 79 78 77 75 75 73 77 76 77 71 69 68 69 70 72 72 67 65 65 71 73 74 79 79 78 75 73 72 74 75 76 74 73
85 89 88 83 81 84 86 90 88 85 81 79 77 73 71 73 75 77 80 78 69 64 64 66 68 68 67 66 66 72 74 76 79 80 78 76 74 72 73 73 74 73 72
95 98 90 92 92 97 98 93 91 87 86 86 81 75 71 66 70 71 72 75 76 69 61 61 66 69 67 66 67 70 72 76 79 79 79 76 74 73 75 73 73 73 71
95 94 96 96 96 98 97 95 94 91 90 86 81 79 76 69 67 70 74 75 69 68 69 64 65 65 64 65 67 67 73 78 81 79 80 80 78 76 76 76 74 73 71
99 104 101 107 103 100 97 97 91 92 92 89 87 82 76 70 65 70 71 70 69 66 70 77 72 65 64 64 65 64 69 75 81 81 80 81 82 80 79 79 80 78 75
97 111 115 115 112 108 102 105 102 96 92 95 93 87 82 80 70 65 67 67 67 68 66 69 79 76 68 63 64 66 67 70 79 83 81 79 81 81 83 83 83 82 78
110 117 120 118 116 109 112 115 111 111 110 111 109 103 95 83 72 71 67 70 71 68 71 68 68 74 81 73 61 65 69 72 76 80 83 83 83 84 85 84 83 82 79
124 132 135 127 121 111 117 121 126 125 124 167 172 157 139 113 81 72 77 67 70 71 64 67 74 75 71 75 69 63 64 70 72 75 78 79 81 85 88 87 83 83 82
134 143 140 138 134 138 136 144 152 164 160 170 287 303 271 105 116 108 81 79 70 62 63 60 68 70 73 75 77 70 61 65 71 79 81 82 84 87 87 90 89 86 82
136 145 152 151 145 141 142 151 156 163 194 196 167 343 346 22 235 147 129 100 82 62 55 65 71 71 75 79 75 62 61 65 68 70 76 81 88 90 91 93 91 90 85
140 148 155 156 151 151 152 152 162 191 223 260 256 176 121 135 254 246 169 142 115 81 63 43 87 81 77 80 82 77 72 66 65 61 61 73 80 84 87 86 86 83 82
153 149 152 160 158 161 169 176 189 194 237 257 273 257 238 232 232 231 219 186 120 83 77 54 70 86 86 87 86 87 82 72 63 60 57 61 71 78 83 83 81 79 78
171 165 165 173 159 167 170 176 189 204 219 233 263 289 297 300 281 264 214 199 166 143 115 110 84 100 101 101 98 106 96 83 71 65 62 60 64 71 76 78 78 78 80
182 176 177 177 167 169 172 184 207 201 211 205 216 225 243 280 284 252 233 209 196 179 175 119 100 105 108 104 93 120 102 100 88 73 66 65 67 74 87 81 77 77 82
180 184 180 177 176 175 181 191 207 210 211 222 219 200 205 193 216 234 242 238 239 223 177 138 136 119 130 110 111 123 105 103 102 89 79 73 71 75 83 84 80 77 78
188 185 184 181 183 187 189 187 203 220 215 206 220 218 205 206 183 198 220 244 257 249 218 134 129 128 121 135 122 116 102 107 104 97 88 76 72 81 86 86 80 74 75
195 199 195 196 194 195 191 185 206 207 221 219 211 209 205 203 199 193 189 204 213 215 185 158 136 134 137 133 125 132 119 119 108 113 103 90 84 82 81 85 81 76 76
198 206 203 201 199 202 206 203 202 207 217 228 227 218 211 193 201 194 191 198 198 201 185 175 172 148 150 142 134 136 140 124 113 116 120 107 97 92 83 84 80 78 77
197 204 202 201 206 210 212 214 213 213 217 227 228 226 214 198 197 189 197 198 192 180 176 182 174 158 172 156 157 166 166 152 143 129 135 142 133 116 102 96 90 80 73
200 209 205 201 205 208 211 208 213 216 221 220 214 217 214 202 209 199 199 201 189 178 178 186 183 178 174 167 190 194 187 171 181 150 143 155 159 161 156 142 129 111 82
198 200 203 204 200 205 211 219 210 213 219 217 211 213 202 154 61 192 202 196 188 189 187 191 190 186 189 189 206 207 207 195 183 190 196 188 180 183 172 173 177 177 176
191 180 196 197 190 187 134 170 233 215 217 221 223 215 192 176 160 153 125 125 201 201 199 196 205 210 215 215 217 214 211 213 227 187 222 233 206 210 200 173 127 149 167
186 182 191 196 199 171 150 173 212 224 230 233 228 215 203 189 192 187 168 171 177 218 247 227 218 225 224 219 208 210 214 231 256 217 214 244 222 232 215 157 139 152 169
195 196 198 194 203 181 159 180 207 222 226 230 227 221 208 195 185 192 181 181 191 193 212 224 227 236 236 228 216 233 236 227 244 207 226 259 248 243 235 214 159 171 188
203 205 204 205 208 200 171 177 208 221 225 226 226 222 219 207 153 186 200 197 202 195 163 179 264 38 64 105 217 209 205 213 237 232 213 249 265 262 251 231 176 177 202
212 213 211 220 221 219 177 182 212 221 226 226 226 221 209 216 177 191 210 212 218 214 198 183 190 197 201 191 199 220 224 229 245 245 202 227 253 258 249 228 219 213 217
Height
1543 1543 1543 1543 1543 1543 1543 1543 1543 1543 1543 1543 1543 1543 1543 1543 1543 1543 1542 1542 1542 1542 1542 1542 1541 1541 1541 1540 1540 1539 1539 1539 1538 1538 1538 1538 1538 1538 1538 1538 1538 1538 1537
1545 1544 1545 1544 1544 1544 1544 1545 1545 1544 1545 1545 1545 1545 1545 1545 1545 1545 1544 1544 1544 1544 1543 1543 1542 1542 1542 1541 1540 1540 1539 1539 1539 1539 1539 1539 1539 1539 1539 1538 1538 1538 1538
1546 1546 1546 1546 1546 1546 1546 1546 1546 1546 1546 1546 1546 1546 1546 1546 1546 1546 1546 1546 1545 1545 1544 1544 1543 1543 1542 1542 1541 1541 1540 1539 1539 1539 1539 1539 1539 1539 1539 1539 1539 1539 1539
1547 1547 1547 1547 1547 1547 1547 1547 1547 1547 1547 1547 1548 1547 1547 1547 1547 1547 1547 1547 1546 1546 1545 1545 1544 1544 1543 1543 1542 1541 1541 1540 1540 1540 1540 1540 1540 1540 1540 1540 1539 1539 1539
1548 1548 1547 1548 1548 1548 1548 1548 1548 1548 1548 1549 1549 1548 1549 1548 1548 1548 1548 1548 1547 1547 1546 1545 1545 1545 1544 1544 1543 1542 1542 1541 1541 1541 1541 1540 1540 1540 1540 1540 1540 1540 1540
1548 1548 1548 1549 1549 1549 1549 1549 1549 1549 1549 1549 1550 1549 1549 1549 1549 1549 1549 1549 1548 1548 1547 1547 1546 1545 1545 1544 1544 1543 1542 1541 1541 1541 1541 1541 1541 1541 1541 1541 1541 1541 1541
1549 1549 1549 1549 1549 1550 1549 1550 1550 1550 1550 1550 1550 1550 1550 1550 1550 1549 1549 1549 1549 1548 1548 1547 1547 1547 1546 1545 1544 1544 1543 1542 1542 1542 1542 1542 1542 1541 1542 1541 1541 1542 1541
1549 1549 1550 1550 1550 1550 1550 1550 1550 1551 1551 1551 1551 1551 1551 1552 1551 1550 1550 1550 1550 1549 1549 1548 1548 1547 1547 1546 1545 1545 1544 1544 1543 1543 1542 1542 1542 1542 1542 1542 1542 1542 1542
1550 1550 1550 1551 1551 1551 1551 1550 1551 1551 1551 1551 1551 1552 1551 1551 1552 1552 1550 1550 1550 1549 1549 1549 1548 1548 1548 1547 1546 1545 1545 1544 1544 1543 1543 1543 1543 1542 1542 1542 1542 1542 1543
1550 1550 1551 1551 1551 1551 1551 1551 1551 1551 1551 1551 1551 1551 1551 1551 1551 1551 1551 1550 1550 1549 1549 1549 1548 1548 1548 1547 1546 1546 1545 1545 1544 1544 1544 1544 1543 1543 1543 1543 1543 1543 1543
1550 1550 1551 1551 1551 1551 1551 1551 1551 1551 1551 1551 1551 1551 1550 1550 1550 1551 1551 1551 1550 1550 1549 1548 1548 1548 1548 1547 1547 1546 1546 1545 1544 1544 1544 1544 1543 1543 1543 1543 1543 1543 1543
1550 1551 1551 1551 1551 1551 1551 1551 1551 1551 1551 1551 1551 1550 1550 1550 1550 1550 1550 1550 1550 1550 1549 1548 1548 1548 1547 1547 1546 1546 1546 1545 1545 1544 1544 1544 1543 1543 1543 1543 1543 1543 1543
1550 1550 1550 1550 1550 1551 1551 1551 1551 1551 1550 1550 1550 1550 1550 1550 1550 1550 1549 1549 1549 1549 1549 1548 1548 1547 1547 1547 1546 1546 1546 1545 1545 1545 1544 1544 1544 1543 1543 1543 1543 1543 1543
1550 1550 1550 1550 1550 1550 1550 1550 1550 1550 1550 1550 1549 1549 1549 1549 1549 1549 1549 1549 1549 1549 1549 1549 1548 1547 1547 1547 1546 1546 1546 1545 1545 1545 1544 1544 1544 1544 1543 1543 1543 1543 1542
1549 1549 1549 1549 1549 1549 1549 1549 1549 1549 1549 1549 1549 1548 1548 1548 1548 1548 1548 1548 1549 1549 1549 1549 1548 1547 1547 1547 1546 1546 1546 1545 1545 1544 1544 1544 1544 1543 1543 1543 1542 1542 1542
1548 1548 1548 1548 1548 1548 1548 1548 1548 1548 1548 1548 1548 1548 1547 1547 1547 1547 1547 1547 1548 1548 1548 1548 1547 1547 1546 1546 1546 1546 1546 1545 1545 1545 1544 1544 1544 1543 1543 1542 1542 1542 1541
1546 1547 1547 1548 1548 1548 1548 1547 1547 1547 1547 1547 1547 1547 1546 1546 1546 1546 1546 1546 1546 1547 1546 1547 1547 1546 1546 1546 1546 1546 1546 1545 1545 1545 1544 1544 1544 1543 1543 1542 1542 1541 1541
1545 1545 1546 1546 1547 1546 1547 1547 1546 1546 1546 1546 1546 1546 1546 1545 1545 1545 1545 1545 1545 1545 1546 1546 1546 1546 1546 1546 1545 1545 1545 1545 1545 1544 1544 1544 1543 1543 1542 1542 1541 1541 1540
1543 1543 1544 1545 1545 1545 1545 1545 1545 1545 1545 1545 1544 1544 1544 1544 1544 1544 1544 1544 1544 1544 1544 1544 1545 1545 1545 1545 1545 1545 1545 1544 1544 1543 1543 1543 1543 1542 1542 1541 1540 1540 1539
1541 1541 1542 1542 1543 1543 1543 1543 1543 1543 1543 1543 1543 1543 1543 1543 1543 1543 1543 1543 1543 1543 1543 1543 1543 1544 1544 1543 1544 1544 1544 1543 1543 1543 1542 1542 1541 1541 1540 1540 1539 1539 1538
1538 1539 1540 1540 1541 1541 1541 1541 1542 1541 1541 1541 1541 1541 1541 1541 1541 1541 1541 1541 1541 1541 1542 1542 1542 1542 1543 1542 1543 1543 1543 1543 1542 1542 1542 1541 1541 1540 1539 1538 1538 1537 1536
1536 1537 1537 1538 1538 1538 1539 1539 1539 1540 1540 1540 1539 1539 1539 1539 1539 1539 1539 1539 1540 1540 1540 1540 1541 1541 1541 1541 1541 1541 1541 1541 1541 1541 1540 1540 1539 1539 1538 1537 1536 1535 1534
1534 1534 1535 1535 1536 1536 1536 1537 1537 1537 1537 1538 1538 1538 1537 1537 1537 1538 1538 1538 1538 1538 1538 1539 1539 1539 1539 1539 1539 1539 1539 1539 1539 1538 1538 1538 1537 1537 1536 1535 1534 1533 1532
1531 1532 1532 1533 1533 1534 1534 1534 1535 1535 1535 1535 1535 1535 1535 1535 1535 1536 1536 1536 1536 1535 1536 1536 1536 1536 1536 1536 1536 1537 1537 1536 1536 1536 1535 1536 1535 1534 1533 1532 1531 1530 1529
1528 1529 1529 1530 1530 1531 1531 1532 1532 1532 1533 1532 1533 1533 1533 1533 1533 1533 1534 1533 1533 1533 1533 1533 1533 1533 1533 1533 1533 1534 1534 1534 1534 1533 1533 1533 1532 1532 1531 1530 1529 1527 1526
1525 1526 1526 1527 1527 1528 1528 1529 1529 1529 1530 1530 1530 1530 1530 1530 1530 1530 1531 1531 1531 1531 1531 1530 1530 1530 1530 1530 1530 1530 1531 1531 1531 1531 1530 1529 1529 1529 1528 1527 1526 1525 1523